Stations météo

Publicité
Biscarosse, France (7503): Température de l'air & dewpoint: 14.02.2018 01:00:00 - 20.02.2018 01:00:00 (CET)Biscarosse, France (7503): Température de l'air 5cm: 14.02.2018 01:00:00 - 20.02.2018 01:00:00 (CET)Biscarosse, France (7503): Température de l'air -20cm & Température de l'air -100cm: 14.02.2018 01:00:00 - 20.02.2018 01:00:00 (CET)Biscarosse, France (7503): Vitesse du vent & gusts: 14.02.2018 01:00:00 - 20.02.2018 01:00:00 (CET)Biscarosse, France (7503): Direction du vent: 14.02.2018 01:00:00 - 20.02.2018 01:00:00 (CET)Biscarosse, France (7503): reduced air pressure: 14.02.2018 01:00:00 - 20.02.2018 01:00:00 (CET)Biscarosse, France (7503): visibility: 14.02.2018 01:00:00 - 20.02.2018 01:00:00 (CET)Biscarosse, France (7503): Ensoleillement: 14.02.2018 01:00:00 - 20.02.2018 01:00:00 (CET)Biscarosse, France (7503): Quantités de précipitations: 14.02.2018 01:00:00 - 20.02.2018 01:00:00 (CET)
Date & Time tt [°C] td [°C] tt 5cm [°C] tt -20cm [°C] tt -100cm [°C] ff [km/h] ff [knt] fx [km/h] fx [knt] dd ppp [hPa] vv [km] sd [min] rr [mm]
20.02.2018 01:00:00 - - - - - - - - - - - - - -
20.02.2018 00:00:00 10,5 10,0 10,3 11,4 10,4 24 13 31 17 NNW 1019,0 7 0 0,0
19.02.2018 23:00:00 10,4 9,9 10,3 11,4 10,4 24 13 30 16 NNW 1019,2 5 0 0,2
19.02.2018 22:00:00 10,4 9,9 10,3 11,6 10,4 20 11 29 16 NNW 1019,4 7 0 0,2
19.02.2018 21:00:00 10,5 10,0 10,2 11,7 10,4 21 11 26 14 NNW 1019,3 6 0 0,4
19.02.2018 20:00:00 10,3 9,8 10,1 11,8 10,4 21 11 28 15 NNW 1019,4 4,5 0 0,4
19.02.2018 19:00:00 10,3 9,7 10,2 11,9 10,4 19 10 26 14 NNW 1019,4 3,2 0 0,0
19.02.2018 18:00:00 10,5 9,7 10,5 11,9 10,4 22 12 26 14 NNW 1019,0 9 0 0,0
19.02.2018 17:00:00 10,8 9,7 11,1 11,9 10,4 23 12 27 15 NNW 1019,0 10 0 0,0
19.02.2018 16:00:00 11,0 10,2 11,8 11,8 10,4 18 10 23 13 NNW 1019,0 12 0 0,0
19.02.2018 15:00:00 10,9 10,0 12,1 11,4 10,4 8 4 12 6 NW 1019,1 8 0 0,0
19.02.2018 14:00:00 11,2 9,8 14,0 11,0 10,4 10 5 12 6 NW 1019,4 15 24 0,0
19.02.2018 13:00:00 11,8 10,9 13,4 10,6 10,4 9 5 12 7 NW 1019,6 11 13 0,0
19.02.2018 12:00:00 10,9 10,4 12,6 10,4 10,4 9 5 11 6 NNW 1019,9 7 12 0,0
19.02.2018 11:00:00 10,7 10,4 11,5 10,2 10,4 8 4 11 6 NNW 1019,7 6 0 0,0
19.02.2018 10:00:00 10,3 10,0 10,5 10,1 10,3 8 5 12 7 NNW 1019,8 5 0 0,0
19.02.2018 09:00:00 10,1 9,8 10,0 10,2 10,4 9 5 15 8 N 1019,5 3,4 0 0,0
19.02.2018 08:00:00 10,1 9,8 10,0 10,1 10,3 10 5 17 9 N 1019,4 2,9 0 0,0
19.02.2018 07:00:00 10,1 9,8 9,9 10,2 10,4 14 8 25 13 N 1019,3 4,4 0 0,0
19.02.2018 06:00:00 10,3 10,0 10,1 10,1 10,3 19 10 23 12 NNW 1019,1 3,5 0 0,0
19.02.2018 05:00:00 10,6 10,3 10,4 10,2 10,4 16 8 19 10 NNW 1019,0 4,3 0 1,6
19.02.2018 04:00:00 10,7 10,4 10,5 10,1 10,3 14 7 20 11 NNW 1019,2 4,7 0 0,0
19.02.2018 03:00:00 10,8 10,5 10,4 10,1 10,4 18 10 26 14 NW 1019,6 5 0 0,4
19.02.2018 02:00:00 10,5 10,0 10,4 10,1 10,3 24 13 34 18 NNW 1020,2 3,9 0 0,2
19.02.2018 01:00:00 10,7 10,2 10,3 10,1 10,4 24 13 33 18 NW 1020,7 7 0 0,0
19.02.2018 00:00:00 10,7 10,2 10,3 10,1 10,4 26 14 41 22 NW 1020,9 6 0 0,0
18.02.2018 23:00:00 10,8 10,2 10,3 10,1 10,4 31 17 39 21 NW 1021,2 11 0 0,4
18.02.2018 22:00:00 11,1 10,2 9,9 10,1 10,4 30 16 44 24 NW 1021,4 4,7 0 0,0
18.02.2018 21:00:00 10,6 9,7 9,8 10,1 10,4 32 18 48 26 NNW 1021,9 8 0 0,2
18.02.2018 20:00:00 10,6 9,4 9,7 10,1 10,4 41 22 58 31 NW 1022,1 7 0 0,2
18.02.2018 19:00:00 11,2 10,7 10,8 10,1 10,4 32 17 43 23 NW 1021,7 3,1 0 0,6
18.02.2018 18:00:00 11,1 10,6 10,8 10,0 10,4 28 15 45 25 NW 1021,9 2,1 0 0,4
18.02.2018 17:00:00 11,4 10,8 11,1 9,8 10,4 29 16 40 21 NW 1022,0 4,3 0 0,0
18.02.2018 16:00:00 11,4 10,8 11,2 9,6 10,4 31 17 42 23 WNW 1022,0 6 0 0,4
18.02.2018 15:00:00 11,8 11,2 11,5 9,4 10,4 29 16 35 19 WNW 1022,4 6 0 0,2
18.02.2018 14:00:00 11,4 10,9 10,0 9,2 10,5 27 14 35 19 WNW 1023,1 5 0 2,3
18.02.2018 13:00:00 9,4 8,9 9,2 9,0 10,4 11 6 35 19 E 1024,1 3,3 0 11,0
18.02.2018 12:00:00 9,5 8,9 9,3 8,8 10,4 29 15 36 20 SW 1024,8 3,0 0 2,0
18.02.2018 11:00:00 9,5 8,7 8,3 8,7 10,4 29 16 39 21 WSW 1025,2 2,8 0 1,0
18.02.2018 10:00:00 8,4 7,5 7,6 8,7 10,4 15 8 23 13 S 1025,5 9 0 0,2
18.02.2018 09:00:00 7,4 6,5 6,1 8,7 10,4 10 6 16 9 S 1025,9 17 0 0,0
18.02.2018 08:00:00 6,3 5,4 5,7 8,8 10,4 9 5 14 8 SSE 1026,1 20 0 0,0
18.02.2018 07:00:00 6,0 5,3 4,9 9,0 10,4 9 5 14 8 SSE 1026,4 20 0 0,0
18.02.2018 06:00:00 5,4 4,8 3,7 9,2 10,4 9 5 10 6 SE 1026,9 20 0 0,0
18.02.2018 05:00:00 4,9 4,2 3,3 9,5 10,4 8 4 10 5 SE 1027,2 18 0 0,0
18.02.2018 04:00:00 5,1 4,4 2,8 9,7 10,3 6 4 8 4 SE 1027,5 13 0 0,0
18.02.2018 03:00:00 5,5 4,6 3,5 9,9 10,3 5 3 5 3 SE 1028,1 17 0 0,0
18.02.2018 02:00:00 6,1 5,1 3,7 10,3 10,3 4 2 6 3 E 1028,4 20 0 0,2
18.02.2018 01:00:00 6,5 5,4 3,7 10,5 10,3 4 2 6 3 E 1028,4 19 0 0,0
18.02.2018 00:00:00 6,1 5,1 3,9 10,8 10,3 3 2 8 5 E 1028,6 15 0 0,0
17.02.2018 23:00:00 5,5 4,3 3,8 11,2 10,2 5 3 13 7 NNE 1028,4 11 0 0,0
17.02.2018 22:00:00 6,2 4,7 4,8 11,5 10,2 8 4 13 7 NNE 1028,3 13 0 0,0
17.02.2018 21:00:00 6,8 4,9 5,5 11,8 10,2 3 1 18 10 NE 1028,1 12 0 0,0
17.02.2018 20:00:00 8,2 5,5 7,2 12,1 10,2 15 8 23 13 NNW 1027,9 14 0 0,0
17.02.2018 19:00:00 8,8 5,7 7,5 12,2 10,1 17 9 22 12 NNW 1027,4 11 0 0,0
17.02.2018 18:00:00 9,9 5,9 9,3 12,3 10,1 18 10 27 15 NNW 1027,0 14 45 0,0
17.02.2018 17:00:00 11,4 6,3 13,2 12,2 10,2 21 11 27 14 NNW 1026,7 18 39 0,0
17.02.2018 16:00:00 11,5 7,4 12,6 11,9 10,1 21 11 31 17 NNW 1026,5 15 10 0,0
17.02.2018 15:00:00 11,7 6,6 14,9 11,5 10,1 24 13 34 19 N 1026,3 18 51 0,0
17.02.2018 14:00:00 12,3 7,2 13,4 11,2 10,1 26 14 36 19 NNW 1026,2 16 46 0,0
17.02.2018 13:00:00 12,0 7,1 13,3 10,9 10,1 31 17 39 21 NNW 1026,2 18 31 0,0
17.02.2018 12:00:00 12,2 6,9 12,9 10,8 10,1 30 16 47 25 NW 1025,9 16 41 0,0
17.02.2018 11:00:00 11,6 7,3 11,6 10,7 10,0 29 16 50 27 NW 1025,3 16 13 0,0
17.02.2018 10:00:00 11,6 7,9 10,4 10,8 10,0 35 19 50 27 WNW 1024,5 13 26 0,0
17.02.2018 09:00:00 11,1 7,4 10,4 10,9 10,0 36 19 45 24 WNW 1024,0 13 0 0,0
17.02.2018 08:00:00 11,1 8,3 10,5 11,0 9,9 35 19 45 24 WNW 1023,3 13 0 0,0
17.02.2018 07:00:00 11,1 8,7 10,0 11,2 9,9 29 16 38 20 W 1022,8 10 0 0,0
17.02.2018 06:00:00 10,7 7,6 9,1 11,4 9,9 31 17 49 26 NW 1022,5 13 0 0,0
17.02.2018 05:00:00 10,6 8,2 9,2 11,5 9,9 41 22 58 31 NW 1021,9 12 0 0,0
17.02.2018 04:00:00 10,2 8,6 9,2 11,6 9,9 49 27 66 35 NW 1021,2 12 0 0,4
17.02.2018 03:00:00 11,6 11,3 11,2 11,7 9,8 38 20 48 26 W 1020,5 8 0 0,2
17.02.2018 02:00:00 11,6 11,3 11,5 11,7 9,8 17 9 26 14 W 1020,2 1,9 0 1,6
17.02.2018 01:00:00 11,7 11,2 11,5 11,8 9,8 19 10 25 13 WNW 1019,7 0,8 0 0,4
17.02.2018 00:00:00 11,7 11,2 11,6 11,9 9,8 9 5 14 8 NNW 1019,2 0,3 0 0,0
16.02.2018 23:00:00 11,9 11,3 11,7 11,9 9,8 9 5 15 8 NNW 1018,9 0,7 0 0,0
16.02.2018 22:00:00 12,6 12,0 12,2 12,0 9,8 4 2 8 4 NNW 1018,8 0,6 0 0,0
16.02.2018 21:00:00 13,0 12,2 12,5 12,1 9,7 4 2 9 5 ESE 1018,8 13 0 0,0
16.02.2018 20:00:00 13,1 12,2 12,5 12,2 9,7 2 1 16 8 E 1019,2 12 0 0,0
16.02.2018 19:00:00 13,4 12,3 13,2 12,2 9,7 8 4 18 10 E 1019,4 19 0 0,0
16.02.2018 18:00:00 13,8 12,4 14,0 12,0 9,7 12 6 18 10 E 1019,4 20 4 0,0
16.02.2018 17:00:00 14,7 13,2 15,5 11,8 9,7 6 3 19 10 NE 1019,9 20 8 0,0
16.02.2018 16:00:00 14,3 12,8 15,4 11,5 9,6 7 4 16 8 ENE 1020,4 20 1 0,0
16.02.2018 15:00:00 14,2 13,2 14,4 11,3 9,6 10 5 14 8 N 1021,1 20 0 0,0
16.02.2018 14:00:00 13,7 13,1 14,6 11,0 9,6 6 3 10 5 N 1022,0 17 0 0,0
16.02.2018 13:00:00 13,1 12,6 13,6 10,8 9,6 4 2 16 8 NE 1022,9 8 0 0,0
16.02.2018 12:00:00 12,5 12,0 12,8 10,7 9,6 7 4 16 9 E 1023,3 9 0 0,0
16.02.2018 11:00:00 11,8 11,3 12,2 10,5 9,5 9 5 16 9 E 1023,4 11 0 0,0
16.02.2018 10:00:00 11,4 10,9 11,0 10,5 9,5 9 5 18 10 E 1023,4 2,3 5 0,0
16.02.2018 09:00:00 10,9 10,4 10,9 10,5 9,5 12 6 20 11 E 1023,3 2,3 0 0,0
16.02.2018 08:00:00 11,3 10,8 10,8 10,5 9,4 4 2 15 8 NNE 1023,3 2,5 0 0,0
16.02.2018 07:00:00 11,3 10,8 10,6 10,6 9,4 3 1 8 4 NE 1023,0 20 0 0,0
16.02.2018 06:00:00 11,3 10,8 10,4 10,7 9,4 4 2 7 4 E 1023,1 5 0 0,0
16.02.2018 05:00:00 11,3 10,7 10,6 10,7 9,4 3 2 16 9 E 1022,9 0,4 0 0,0
16.02.2018 04:00:00 11,7 11,1 11,0 10,8 9,3 14 7 20 11 NW 1023,1 0,9 0 0,0
16.02.2018 03:00:00 11,9 11,1 11,4 10,8 9,3 4 2 16 9 NE 1022,9 10 0 0,0
16.02.2018 02:00:00 12,2 11,3 11,6 10,9 9,3 10 5 16 8 E 1022,6 13 0 0,0
16.02.2018 01:00:00 12,5 11,6 11,8 11,0 9,3 8 4 12 6 N 1023,0 20 0 0,0
16.02.2018 00:00:00 12,6 11,5 12,0 11,0 9,2 8 4 20 11 N 1023,0 13 0 0,0
15.02.2018 23:00:00 12,8 11,4 11,9 11,1 9,2 10 5 22 12 N 1022,7 9 0 0,0
15.02.2018 22:00:00 13,7 10,7 12,5 11,1 9,2 4 2 6 3 E 1022,0 20 0 0,0
15.02.2018 21:00:00 14,2 10,8 12,6 11,2 9,2 2 1 7 4 ESE 1021,7 20 0 0,0
15.02.2018 20:00:00 14,4 10,8 13,5 11,2 9,1 3 2 6 3 SE 1021,9 20 0 0,0
15.02.2018 19:00:00 14,3 10,5 13,7 11,2 9,2 5 3 10 5 SE 1021,4 20 0 0,0
15.02.2018 18:00:00 14,3 11,6 14,2 11,1 9,1 4 2 6 3 SE 1021,0 20 0 0,0
15.02.2018 17:00:00 15,3 10,7 16,3 10,9 9,1 0 0 9 5 N 1021,0 20 2 0,0
15.02.2018 16:00:00 14,8 10,6 15,3 10,6 9,1 6 3 14 8 S 1021,0 12 0 0,0
15.02.2018 15:00:00 14,8 10,0 15,8 10,3 9,1 11 6 18 10 S 1020,8 9 0 0,0
15.02.2018 14:00:00 15,3 9,6 16,3 9,9 9,1 11 6 19 10 SSW 1021,0 9 2 0,0
15.02.2018 13:00:00 15,5 11,1 15,2 9,6 9,1 7 4 15 8 S 1021,0 20 2 0,0
15.02.2018 12:00:00 13,9 10,9 13,4 9,5 9,0 7 4 16 9 S 1021,1 20 0 0,0
15.02.2018 11:00:00 12,8 10,5 11,5 9,4 9,0 8 5 13 7 SSE 1020,5 7 0 0,0
15.02.2018 10:00:00 11,9 10,1 11,4 9,3 9,0 2 1 16 9 S 1020,5 2,5 0 0,0
15.02.2018 09:00:00 12,2 10,1 11,1 9,3 9,0 9 5 16 9 S 1019,6 4,1 0 0,2
15.02.2018 08:00:00 12,5 9,7 11,7 9,3 9,0 13 7 25 13 S 1018,9 3,6 0 0,0
15.02.2018 07:00:00 12,7 10,9 12,5 9,2 9,0 20 11 29 16 SW 1018,2 7 0 0,0
15.02.2018 06:00:00 12,9 11,3 12,2 9,1 9,0 22 12 29 15 SW 1017,9 8 0 0,0
15.02.2018 05:00:00 12,5 10,9 12,0 9,1 9,0 20 11 30 16 SSW 1017,4 8 0 0,0
15.02.2018 04:00:00 12,5 11,1 12,2 9,0 9,0 21 11 28 15 SSW 1017,3 9 0 0,0
15.02.2018 03:00:00 12,9 11,6 12,5 8,9 9,0 24 13 31 17 SW 1016,9 6 0 0,0
15.02.2018 02:00:00 12,8 11,9 12,3 8,8 9,0 26 14 33 18 SW 1016,3 6 0 0,0
15.02.2018 01:00:00 12,5 11,7 12,1 8,8 9,0 25 14 33 18 SW 1016,0 5 0 0,0
15.02.2018 00:00:00 12,5 11,9 12,0 8,7 9,0 21 11 29 16 SW 1015,6 4,3 0 0,0
14.02.2018 23:00:00 12,6 12,1 12,1 8,5 9,0 23 13 30 16 SW 1015,5 5 0 0,0
14.02.2018 22:00:00 12,5 12,0 12,1 8,4 9,0 21 11 31 17 SW 1015,1 4,6 0 0,0
14.02.2018 21:00:00 12,5 12,0 12,0 8,3 9,1 23 13 34 18 WSW 1014,4 4,3 0 0,0
14.02.2018 20:00:00 12,5 12,2 12,0 8,1 9,1 30 16 43 23 W 1013,9 4,6 0 0,8
14.02.2018 19:00:00 12,3 12,0 11,5 7,9 9,1 33 18 48 26 WSW 1013,1 4,2 0 0,4
14.02.2018 18:00:00 11,8 11,3 10,8 7,7 9,1 39 21 51 28 WSW 1012,6 7 0 0,6
14.02.2018 17:00:00 11,0 10,5 10,0 7,5 9,1 33 18 44 24 SW 1012,2 2,4 0 0,8
14.02.2018 16:00:00 10,1 9,6 9,5 7,4 9,1 31 17 43 23 SSW 1011,8 1,3 0 1,6
14.02.2018 15:00:00 9,5 9,0 8,6 7,1 9,1 23 12 39 21 S 1011,7 3,4 0 1,0
14.02.2018 14:00:00 8,4 7,8 7,7 7,0 9,1 18 10 35 19 SSE 1012,1 4,6 0 1,3
14.02.2018 13:00:00 7,5 6,9 7,1 6,8 9,1 19 10 37 20 SE 1012,9 5 0 1,8
14.02.2018 12:00:00 7,0 6,3 6,8 6,7 9,1 18 10 39 21 SE 1013,7 10 0 1,6
14.02.2018 11:00:00 6,8 6,2 6,6 6,7 9,1 20 11 34 18 SE 1013,5 11 0 1,8
14.02.2018 10:00:00 6,7 6,1 6,5 6,6 9,1 13 7 25 14 SSE 1013,7 11 0 0,6
14.02.2018 09:00:00 6,7 6,0 6,0 6,6 9,1 11 6 18 10 SE 1014,2 7 0 0,0
14.02.2018 08:00:00 6,3 5,4 5,5 6,6 9,1 10 5 19 11 SE 1014,2 8 0 0,0
14.02.2018 07:00:00 5,9 4,9 5,2 6,7 9,1 9 5 16 9 SE 1014,2 20 0 0,0
14.02.2018 06:00:00 5,7 4,2 5,2 6,7 9,1 8 4 16 9 SE 1014,4 20 0 0,0
14.02.2018 05:00:00 6,4 3,7 5,8 6,7 9,1 10 5 21 11 SE 1014,3 20 0 0,0
14.02.2018 04:00:00 6,2 3,4 5,6 6,8 9,1 9 5 17 9 ESE 1014,7 20 0 0,0
14.02.2018 03:00:00 6,3 3,5 5,8 6,8 9,1 8 4 12 6 ESE 1015,0 20 0 0,0
14.02.2018 02:00:00 7,2 3,4 6,7 6,8 9,1 7 4 34 18 ENE 1015,3 20 0 0,0
14.02.2018 01:00:00 9,3 3,3 8,0 6,8 9,1 23 13 29 15 WNW 1015,0 14 0 0,0

tt = Température de l'air
td = dewpoint
tt 5cm = Température de l'air 5cm
tt -20cm = Température de l'air -20cm
tt -100cm = Température de l'air -100cm
ff = Vitesse du vent
fx = gusts
dd = Direction du vent
ppp = reduced air pressure
vv = visibility
sd = Ensoleillement
rr = Quantités de précipitations

stations d'obs. à proximité